Regional Weather Roundup
Issued by NWS

Home | Current Version | Previous Version | Graphics & Text | Print | Product List | Glossary On
Versions: 1 2 3 4 5 6 7 8 9 10 11 12 13 14 15 16 17 18 19 20 21 22 23 24 25 26 27 28 29 30 31 32 33 34 35 36 37 38 39 40 41 42 43 44 45 46 47 48 49 50
000
ASUS44 KMEG 190510
RWRTN
TENNESSEE HOURLY STATE WEATHER ROUNDUP
NATIONAL WEATHER SERVICE MEMPHIS TN
1100 PM CST SAT NOV 18 2017

TNZ002-004-019-021-049-052-054-088>092-190600-
WEST TENNESSEE

CITY           SKY/WX    TMP DP  RH WIND       PRES   REMARKS
MEMPHIS INTL   CLEAR     46  35  65 NW10      30.08R
NWS MEMPHIS      N/A     46 N/A N/A MISG        N/A
JACKSON        CLEAR     45  37  73 NW9       30.05R
DYERSBURG      CLEAR     44  35  70 W5        30.07R
COVINGTON      CLEAR     43  36  75 NW9       30.08R
UNION CITY     CLEAR     43  34  70 NW6G13    30.03R
BOLIVAR        PTCLDY    45  36  70 NW8G14    30.04R
PARIS          MOCLDY    43  36  75 VRB7      30.01R
HUNTINGDON     MOCLDY    45  37  76 NW5G13    30.02R
LEXINGTON      CLOUDY    46  37  71 NW10G18   30.02R
SELMER         MOCLDY    46  37  71 NW8G17    30.02R
SAVANNAH       CLOUDY    48  39  71 NW9       30.02R
$$

TNZ008-025-027-028-033-062-065-066-190600-
NORTH MIDDLE TENNESSEE

CITY           SKY/WX    TMP DP  RH WIND       PRES   REMARKS
NASHVILLE      CLOUDY    44  38  79 NW9       29.97R
PORTLAND       CLOUDY    41  39  93 NW7G14    29.93R
CLARKSVILLE    MOCLDY    45  35  68 NW16      29.97R
SMYRNA         CLOUDY    43  39  86 NW15      29.98R
COOKEVILLE     CLOUDY    41  37  87 NW8G17    29.91R
GALLATIN       CLOUDY    43  39  87 VRB7G20   29.98R
CROSSVILLE     CLOUDY    40  37  89 W13G23    29.85R WCI  32
$$

TNZ061-075-076-078-094-096-097-190600-
SOUTH MIDDLE TENNESSEE

CITY           SKY/WX    TMP DP  RH WIND       PRES   REMARKS
FAYETTEVILLE   CLOUDY    45  37  76 N14G28    29.95R
TULLAHOMA      CLOUDY    43  37  81 N21G32    29.93R
WINCHESTER     CLOUDY    43  37  81 NW17G25   29.94R
MCMINNVILLE    CLOUDY    43  37  81 N23G31    29.94R
COLUMBIA       CLOUDY    45  39  81 NW8       29.97R
SHELBYVILLE    CLOUDY    43  37  81 NW16      29.96R
$$

TNZ017-018-042-046-047-190600-
NORTHEAST TENNESSEE

CITY           SKY/WX    TMP DP  RH WIND       PRES   REMARKS
TRI CITIES     LGT RAIN  56  53  90 W21G33    29.61R
ELIZABETHTON   MOCLDY    55  52  88 W13G29    29.60R FOG
$$

TNZ012-013-036-069-073-074-190600-
CENTRAL EAST TENNESSEE

CITY           SKY/WX    TMP DP  RH WIND       PRES   REMARKS
KNOXVILLE      CLOUDY    49  45  86 W22G28    29.81R
OAK RIDGE      CLOUDY    48  40  73 W9G23     29.82R
DOWNTOWN KNOXV CLOUDY    50  43  76 W15G24    29.80R
GATLINBURG     CLOUDY    50  45  81 W13G23    29.77R
MORRISTOWN     CLOUDY    50  43  76 NW14G25   29.76R
$$

TNZ083-085-099-190600-
SOUTHEAST TENNESSEE

CITY           SKY/WX    TMP DP  RH WIND       PRES   REMARKS
CHATTANOOGA    CLOUDY    49  41  74 W15G22    29.89R
$$

SKY/WX REPORTED AS FAIR MEANS FEW OR NO CLOUDS BELOW
12 THOUSAND FEET.





USA.gov is the U.S. government's official web portal to all federal, state and local government web resources and services.